Location: Dreilärchen
(47.9312°N, 8.6113°E)
Time: 20:38:05
(UTC+00:00)

NPP - Pass Details

Date: 26 May 2022
Orbit: 826 x 828 km, 98.7° (Epoch: 02 July)

Event Time Altitude Azimuth Distance (km) Brightness Sun altitude
Rises 01:48:39 0° 11° (N) 3,380 8.1 -13.6°
Reaches altitude 10° 01:51:02 10° 7° (N) 2,442 7.1 -13.4°
Maximum altitude 01:56:19 57° 291° (WNW) 976 3.9 -12.8°
Enters shadow 02:00:20 17° 217° (SW) 1,964 4.9 -12.4°
